Regional Weather Roundup
Issued by NWS Sioux Falls, SD

Home | Current Version | Previous Version | Graphics & Text | Print | Product List | Glossary On
Versions: 1 2 3 4 5 6 7 8 9 10 11 12 13 14 15 16 17 18 19 20 21 22 23 24 25 26 27 28 29 30 31 32 33 34 35 36 37 38 39 40 41 42 43 44 45 46 47 48 49 50
000
ASUS43 KFSD 120802
RWRFSD

WEATHER ROUNDUP FOR SE SOUTH DAKOTA/SW MINNESOTA/NW IOWA
NATIONAL WEATHER SERVICE SIOUX FALLS SD
200 AM CST TUE DEC 12 2017

NOTE: "FAIR" INDICATES FEW OR NO CLOUDS BELOW 12,000 FEET WITH NO
SIGNIFICANT WEATHER AND OR OBSTRUCTIONS TO VISIBILITY.


SDZ038>040-050-052>070-120900-
SOUTHEAST SOUTH DAKOTA

CITY           SKY/WX    TMP DP  RH WIND       PRES   REMARKS
BROOKINGS      CLOUDY    11   8  88 W7        30.30F WCI   0
CHAMBERLAIN    CLOUDY    20  20 100 CALM      30.33F
HURON          CLOUDY    20  17  88 SW3       30.34F
MADISON        FAIR      12  12 100 NW8       30.30F WCI   1
MITCHELL       CLOUDY    17  14  88 W3        30.35F
SIOUX FALLS    CLEAR     14  12  92 NW7       30.32F WCI   4
WINNER         CLOUDY    35  30  82 W6        30.33F
YANKTON        CLEAR     16  13  88 W6        30.36F WCI   7
$$

MNZ071-072-080-081-089-090-097-098-120900-
SOUTHWEST MINNESOTA

CITY           SKY/WX    TMP DP  RH WIND       PRES   REMARKS
FAIRMONT       CLEAR     13   6  74 NW17G24   30.27S WCI  -4
JACKSON        CLEAR     14   9  79 MISG      30.27S
LUVERNE        CLOUDY    12   9  85 NW8       30.32S WCI   1
MARSHALL       CLOUDY     9   7  92 W6        30.32F WCI  -1
MONTEVIDEO     CLEAR     10   7  85 NW5       30.32F WCI   2
PIPESTONE      CLOUDY    12   9  85 NW7       30.28F WCI   2
REDWOOD FALLS  CLEAR     12   3  67 NW10      30.30S WCI  -1
TRACY          CLEAR     14  11  90 NW10      30.29F WCI   1
WINDOM           N/A     12   1  62 NW14      30.27F WCI  -3
WORTHINGTON    CLEAR     12   9  87 NW10      30.28F WCI  -1
$$

IAZ001>003-012>014-020>022-031-032-NEZ013-014-SDZ071-120900-
NORTHWEST IOWA

CITY           SKY/WX    TMP DP  RH WIND       PRES   REMARKS
CHEROKEE       CLEAR     15  12  89 N7        30.31F WCI   5
DENISON        CLEAR     16  10  79 NW6       30.33F WCI   7
ESTHERVILLE    CLEAR     12   8  84 NW16      30.27S WCI  -5
LE MARS        CLEAR     16  12  86 CALM      30.34F
ORANGE CITY    CLEAR     16  16 100 NW6       30.31S WCI   7
SHELDON        CLEAR     14  10  85 NW9       30.29S WCI   2
SIOUX CITY     CLOUDY    16  13  88 NW7       30.37R WCI   6
SPENCER        CLEAR     15  10  80 NW13      30.29F WCI   1
STORM LAKE     CLEAR     14   9  79 N13       30.28S WCI   0
$$

ABBREVIATIONS USED IN REMARKS
   TC - TEMPERATURE IN CELSIUS
  WCI - WIND CHILL INDEX
   HX - HEAT INDEX
  VSB - VISIBILITY





USA.gov is the U.S. government's official web portal to all federal, state and local government web resources and services.